17-01-2022, 00:00:08,    222,    0.2,    1.2,   0.00,   0.00, 1028.9,   82.0, -999.0
17-01-2022, 00:00:18,    240,    0.8,    1.5,   0.00,   0.00, 1028.9,   82.4, -999.0
17-01-2022, 00:00:29,    245,    0.0,    1.4,   0.00,   0.00, 1028.8,   82.0, -999.0
17-01-2022, 00:00:38,    246,    0.0,    1.4,   0.00,   0.00, 1028.8,   82.1, -999.0
17-01-2022, 00:00:48,    248,    0.0,    1.4,   0.00,   0.00, 1028.8,   82.1, -999.0
17-01-2022, 00:00:58,    254,    0.6,    1.4,   0.00,   0.00, 1028.9,   82.4, -999.0
17-01-2022, 00:01:08,    261,    0.4,    1.5,   0.00,   0.00, 1028.9,   82.3, -999.0
17-01-2022, 00:01:18,    261,    0.1,    1.4,   0.00,   0.00, 1028.9,   82.1, -999.0
17-01-2022, 00:01:28,    249,    1.0,    1.4,   0.00,   0.00, 1029.0,   82.3, -999.0
17-01-2022, 00:01:38,    249,    0.1,    1.4,   0.00,   0.00, 1028.9,   82.2, -999.0
17-01-2022, 00:01:48,    248,    0.0,    1.4,   0.00,   0.00, 1028.8,   81.9, -999.0
17-01-2022, 00:01:58,    248,    0.0,    1.3,   0.00,   0.00, 1028.8,   82.0, -999.0
17-01-2022, 00:02:08,    248,    0.0,    1.4,   0.00,   0.00, 1028.9,   81.8, -999.0
17-01-2022, 00:02:17,    248,    0.0,    1.3,   0.00,   0.00, 1028.9,   81.9, -999.0
17-01-2022, 00:02:28,    249,    0.0,    1.3,   0.00,   0.00, 1028.8,   81.8, -999.0
17-01-2022, 00:02:38,    242,    0.0,    1.3,   0.00,   0.00, 1028.8,   81.8, -999.0
17-01-2022, 00:02:47,    242,    0.0,    1.3,   0.00,   0.00, 1028.8,   81.8, -999.0
17-01-2022, 00:02:58,    255,    0.0,    1.3,   0.00,   0.00, 1028.8,   81.8, -999.0
17-01-2022, 00:03:08,    255,    0.0,    1.3,   0.00,   0.00, 1028.8,   81.8, -999.0
17-01-2022, 00:03:17,    256,    0.0,    1.3,   0.00,   0.00, 1028.9,   81.8, -999.0
17-01-2022, 00:03:27,    255,    0.0,    1.3,   0.00,   0.00, 1028.8,   81.8, -999.0
17-01-2022, 00:03:38,    256,    0.0,    1.3,   0.00,   0.00, 1028.8,   81.8, -999.0
17-01-2022, 00:03:47,    256,    0.0,    1.2,   0.00,   0.00, 1028.9,   81.8, -999.0
17-01-2022, 00:03:57,    255,    0.0,    1.2,   0.00,   0.00, 1028.8,   81.7, -999.0
17-01-2022, 00:04:07,    256,    0.0,    1.3,   0.00,   0.00, 1028.8,   81.8, -999.0
17-01-2022, 00:04:17,    265,    0.1,    1.3,   0.00,   0.00, 1028.9,   82.0, -999.0
17-01-2022, 00:04:27,    265,    1.0,    1.4,   0.00,   0.00, 1029.0,   82.2, -999.0
17-01-2022, 00:04:37,    265,    0.0,    1.3,   0.00,   0.00, 1028.9,   81.8, -999.0
17-01-2022, 00:04:47,    265,    0.0,    1.3,   0.00,   0.00, 1028.9,   81.9, -999.0
17-01-2022, 00:04:57,    264,    0.0,    1.3,   0.00,   0.00, 1028.8,   81.8, -999.0
17-01-2022, 00:05:07,    265,    0.0,    1.3,   0.00,   0.00, 1028.8,   81.9, -999.0
17-01-2022, 00:05:17,    264,    0.0,    1.2,   0.00,   0.00, 1028.8,   81.8, -999.0
17-01-2022, 00:05:27,    264,    0.0,    1.3,   0.00,   0.00, 1028.8,   81.7, -999.0
17-01-2022, 00:05:37,    263,    0.0,    1.3,   0.00,   0.00, 1028.8,   81.7, -999.0
17-01-2022, 00:05:47,    264,    0.0,    1.2,   0.00,   0.00, 1028.8,   81.7, -999.0
17-01-2022, 00:05:56,    264,    0.5,    1.3,   0.00,   0.00, 1029.0,   82.1, -999.0
17-01-2022, 00:06:07,    262,    0.1,    1.3,   0.00,   0.00, 1028.9,   81.9, -999.0
17-01-2022, 00:06:17,    262,    0.1,    1.3,   0.00,   0.00, 1028.9,   82.0, -999.0
17-01-2022, 00:06:26,    273,    0.6,    1.2,   0.00,   0.00, 1028.9,   82.0, -999.0
17-01-2022, 00:06:36,    264,    0.3,    1.4,   0.00,   0.00, 1028.9,   82.1, -999.0
17-01-2022, 00:06:47,    265,    0.4,    1.3,   0.00,   0.00, 1029.0,   82.1, -999.0
17-01-2022, 00:06:56,    264,    0.1,    1.3,   0.00,   0.00, 1028.9,   81.9, -999.0
17-01-2022, 00:07:06,    264,    0.0,    1.2,   0.00,   0.00, 1028.9,   81.7, -999.0
17-01-2022, 00:07:17,    264,    0.0,    1.2,   0.00,   0.00, 1028.8,   81.8, -999.0
17-01-2022, 00:07:26,    264,    0.0,    1.2,   0.00,   0.00, 1028.8,   81.7, -999.0
17-01-2022, 00:07:36,    264,    0.0,    1.2,   0.00,   0.00, 1028.8,   81.7, -999.0
17-01-2022, 00:07:46,    264,    0.0,    1.2,   0.00,   0.00, 1028.8,   81.8, -999.0
17-01-2022, 00:07:56,    264,    0.1,    1.3,   0.00,   0.00, 1028.9,   82.0, -999.0
17-01-2022, 00:08:06,    264,    0.1,    1.1,   0.00,   0.00, 1028.9,   82.0, -999.0
17-01-2022, 00:08:16,    264,    0.0,    1.2,   0.00,   0.00, 1028.9,   81.9, -999.0
17-01-2022, 00:08:26,    264,    0.0,    1.2,   0.00,   0.00, 1028.8,   81.8, -999.0
17-01-2022, 00:08:36,    264,    0.0,    1.2,   0.00,   0.00, 1028.8,   81.7, -999.0
17-01-2022, 00:08:46,    265,    0.0,    1.2,   0.00,   0.00, 1028.8,   82.0, -999.0
17-01-2022, 00:08:56,    264,    0.1,    1.2,   0.00,   0.00, 1028.9,   81.9, -999.0
17-01-2022, 00:09:06,    264,    0.5,    1.3,   0.00,   0.00, 1029.0,   82.1, -999.0
17-01-2022, 00:09:16,    263,    0.0,    1.2,   0.00,   0.00, 1028.9,   81.9, -999.0
17-01-2022, 00:09:26,    263,    0.0,    1.1,   0.00,   0.00, 1028.9,   81.7, -999.0
17-01-2022, 00:09:35,    263,    0.0,    1.2,   0.00,   0.00, 1028.8,   81.8, -999.0
17-01-2022, 00:09:46,    263,    0.0,    1.1,   0.00,   0.00, 1028.9,   81.7, -999.0
17-01-2022, 00:09:56,    262,    0.4,    1.1,   0.00,   0.00, 1028.9,   82.1, -999.0
17-01-2022, 00:10:05,    242,    0.0,    1.2,   0.00,   0.00, 1028.9,   82.0, -999.0
17-01-2022, 00:10:15,    242,    0.0,    1.1,   0.00,   0.00, 1028.9,   81.7, -999.0
17-01-2022, 00:10:26,    242,    0.0,    1.1,   0.00,   0.00, 1028.9,   81.9, -999.0
17-01-2022, 00:10:35,    242,    0.0,    1.2,   0.00,   0.00, 1028.8,   81.9, -999.0
17-01-2022, 00:10:45,    243,    0.0,    1.1,   0.00,   0.00, 1028.9,   81.9, -999.0
17-01-2022, 00:10:55,    242,    0.0,    1.1,   0.00,   0.00, 1028.9,   81.8, -999.0
17-01-2022, 00:11:05,    239,    0.0,    1.2,   0.00,   0.00, 1028.9,   82.0, -999.0
17-01-2022, 00:11:15,    239,    0.0,    1.1,   0.00,   0.00, 1028.9,   82.0, -999.0
17-01-2022, 00:11:25,    239,    0.1,    1.1,   0.00,   0.00, 1028.9,   82.2, -999.0
17-01-2022, 00:11:35,    239,    0.1,    1.1,   0.00,   0.00, 1028.8,   82.0, -999.0
17-01-2022, 00:11:45,    239,    0.0,    1.2,   0.00,   0.00, 1028.9,   82.0, -999.0
17-01-2022, 00:11:55,    239,    0.2,    1.2,   0.00,   0.00, 1028.9,   82.1, -999.0
17-01-2022, 00:12:05,    239,    0.0,    1.1,   0.00,   0.00, 1028.9,   82.1, -999.0
17-01-2022, 00:12:17,    239,    0.0,    1.1,   0.00,   0.00, 1028.9,   82.1, -999.0
17-01-2022, 00:12:25,    239,    0.0,    1.2,   0.00,   0.00, 1028.9,   82.0, -999.0
17-01-2022, 00:12:35,    291,    1.2,    1.3,   0.00,   0.00, 1029.0,   82.2, -999.0
17-01-2022, 00:12:45,    290,    0.5,    1.2,   0.00,   0.00, 1029.0,   82.2, -999.0
17-01-2022, 00:12:55,    238,    0.1,    1.2,   0.00,   0.00, 1028.9,   82.1, -999.0
17-01-2022, 00:13:05,    237,    0.0,    1.2,   0.00,   0.00, 1028.9,   82.1, -999.0
17-01-2022, 00:13:15,    237,    0.0,    1.1,   0.00,   0.00, 1028.9,   82.1, -999.0
17-01-2022, 00:13:24,    249,    0.0,    1.2,   0.00,   0.00, 1028.9,   82.1, -999.0
17-01-2022, 00:13:34,    249,    0.0,    1.1,   0.00,   0.00, 1028.9,   82.0, -999.0
17-01-2022, 00:13:45,    248,    0.0,    1.1,   0.00,   0.00, 1028.9,   81.9, -999.0
17-01-2022, 00:13:54,    248,    0.1,    1.0,   0.00,   0.00, 1029.0,   82.1, -999.0
17-01-2022, 00:14:04,    248,    0.5,    1.3,   0.00,   0.00, 1029.1,   82.4, -999.0
17-01-2022, 00:14:14,    239,    0.1,    1.2,   0.00,   0.00, 1029.0,   82.2, -999.0
17-01-2022, 00:14:24,    250,    0.0,    1.2,   0.00,   0.00, 1029.0,   82.2, -999.0
17-01-2022, 00:14:34,    249,    0.1,    1.2,   0.00,   0.00, 1029.0,   82.3, -999.0
17-01-2022, 00:14:44,    249,    0.1,    1.2,   0.00,   0.00, 1029.0,   82.3, -999.0
17-01-2022, 00:14:54,    251,    0.3,    1.3,   0.00,   0.00, 1029.1,   82.4, -999.0
17-01-2022, 00:15:04,    251,    0.2,    1.3,   0.00,   0.00, 1029.0,   82.3, -999.0
17-01-2022, 00:15:14,    251,    0.0,    1.2,   0.00,   0.00, 1028.9,   82.1, -999.0
17-01-2022, 00:15:24,    249,    0.2,    1.2,   0.00,   0.00, 1029.0,   82.3, -999.0
17-01-2022, 00:15:34,    248,    0.4,    1.3,   0.00,   0.00, 1029.1,   82.6, -999.0
17-01-2022, 00:15:44,    248,    0.3,    1.3,   0.00,   0.00, 1029.0,   82.6, -999.0
17-01-2022, 00:15:54,    248,    0.0,    1.2,   0.00,   0.00, 1028.9,   82.2, -999.0
17-01-2022, 00:16:04,    249,    0.0,    1.1,   0.00,   0.00, 1028.9,   82.2, -999.0
17-01-2022, 00:16:14,    248,    0.0,    1.1,   0.00,   0.00, 1028.9,   82.1, -999.0
17-01-2022, 00:16:24,    249,    0.0,    1.2,   0.00,   0.00, 1028.9,   82.1, -999.0
17-01-2022, 00:16:34,    248,    0.0,    1.2,   0.00,   0.00, 1028.9,   82.1, -999.0
17-01-2022, 00:16:43,    249,    0.0,    1.1,   0.00,   0.00, 1028.9,   82.2, -999.0
17-01-2022, 00:16:54,    249,    0.0,    1.2,   0.00,   0.00, 1028.9,   82.0, -999.0
17-01-2022, 00:17:03,    250,    0.0,    1.1,   0.00,   0.00, 1028.9,   82.0, -999.0
17-01-2022, 00:17:13,    249,    0.0,    1.0,   0.00,   0.00, 1028.9,   82.0, -999.0
17-01-2022, 00:17:24,    250,    0.0,    1.2,   0.00,   0.00, 1028.9,   82.2, -999.0
17-01-2022, 00:17:33,    250,    0.0,    1.1,   0.00,   0.00, 1028.9,   82.1, -999.0
17-01-2022, 00:17:43,    249,    0.0,    1.1,   0.00,   0.00, 1028.9,   82.3, -999.0
17-01-2022, 00:17:53,    250,    0.0,    1.1,   0.00,   0.00, 1028.9,   82.1, -999.0
17-01-2022, 00:18:03,    252,    0.0,    1.0,   0.00,   0.00, 1028.9,   82.1, -999.0
17-01-2022, 00:18:13,    250,    0.0,    1.2,   0.00,   0.00, 1028.9,   82.0, -999.0
17-01-2022, 00:18:23,    250,    0.0,    1.1,   0.00,   0.00, 1028.9,   82.0, -999.0
17-01-2022, 00:18:33,    249,    0.0,    1.1,   0.00,   0.00, 1028.9,   82.1, -999.0
17-01-2022, 00:18:43,    249,    0.0,    1.1,   0.00,   0.00, 1028.9,   82.1, -999.0
17-01-2022, 00:18:53,    249,    0.0,    1.1,   0.00,   0.00, 1028.9,   82.0, -999.0
17-01-2022, 00:19:03,    248,    0.0,    1.0,   0.00,   0.00, 1028.9,   82.1, -999.0
17-01-2022, 00:19:13,    251,    0.0,    1.1,   0.00,   0.00, 1028.9,   82.2, -999.0
17-01-2022, 00:19:23,    251,    0.0,    1.1,   0.00,   0.00, 1028.9,   82.2, -999.0
17-01-2022, 00:19:33,    251,    0.0,    1.1,   0.00,   0.00, 1028.9,   82.1, -999.0
17-01-2022, 00:19:43,    254,    0.0,    1.1,   0.00,   0.00, 1028.9,   82.1, -999.0
17-01-2022, 00:19:53,    251,    0.0,    1.1,   0.00,   0.00, 1028.8,   82.1, -999.0
17-01-2022, 00:20:03,    263,    0.5,    1.2,   0.00,   0.00, 1028.9,   82.5, -999.0
17-01-2022, 00:20:13,    262,    0.8,    1.2,   0.00,   0.00, 1029.0,   82.5, -999.0
17-01-2022, 00:20:24,    260,    0.1,    1.2,   0.00,   0.00, 1028.9,   82.4, -999.0
17-01-2022, 00:20:33,    261,    0.0,    1.1,   0.00,   0.00, 1028.8,   82.2, -999.0
17-01-2022, 00:20:42,    261,    0.0,    1.1,   0.00,   0.00, 1028.9,   82.3, -999.0
17-01-2022, 00:20:52,    245,    1.2,    1.2,   0.00,   0.00, 1029.0,   82.7, -999.0
17-01-2022, 00:21:02,    254,    0.9,    1.3,   0.00,   0.00, 1029.0,   82.7, -999.0
17-01-2022, 00:21:12,    254,    0.6,    1.2,   0.00,   0.00, 1028.9,   82.6, -999.0
17-01-2022, 00:21:22,    254,    0.0,    1.2,   0.00,   0.00, 1028.9,   82.3, -999.0
17-01-2022, 00:21:32,    254,    0.0,    1.1,   0.00,   0.00, 1028.8,   82.3, -999.0
17-01-2022, 00:21:42,    254,    0.0,    1.2,   0.00,   0.00, 1028.9,   82.5, -999.0
17-01-2022, 00:21:52,    253,    0.0,    1.2,   0.00,   0.00, 1028.9,   82.4, -999.0
17-01-2022, 00:22:02,    270,    0.0,    1.2,   0.00,   0.00, 1028.9,   82.4, -999.0
17-01-2022, 00:22:12,    270,    0.0,    1.1,   0.00,   0.00, 1028.9,   82.3, -999.0
17-01-2022, 00:22:22,    260,    0.0,    1.1,   0.00,   0.00, 1028.9,   82.4, -999.0
17-01-2022, 00:22:32,    260,    0.0,    1.1,   0.00,   0.00, 1028.8,   82.2, -999.0
17-01-2022, 00:22:42,    262,    0.0,    1.1,   0.00,   0.00, 1028.8,   82.2, -999.0
17-01-2022, 00:22:52,    258,    0.3,    1.2,   0.00,   0.00, 1028.9,   82.5, -999.0
17-01-2022, 00:23:02,    258,    0.4,    1.3,   0.00,   0.00, 1028.9,   82.6, -999.0
17-01-2022, 00:23:12,    249,    0.0,    1.2,   0.00,   0.00, 1028.8,   82.2, -999.0
17-01-2022, 00:23:22,    258,    0.0,    1.1,   0.00,   0.00, 1028.8,   82.3, -999.0
17-01-2022, 00:23:32,    258,    0.0,    1.2,   0.00,   0.00, 1028.8,   82.4, -999.0
17-01-2022, 00:23:42,    258,    0.0,    1.1,   0.00,   0.00, 1028.8,   82.2, -999.0
17-01-2022, 00:23:51,    258,    0.0,    1.1,   0.00,   0.00, 1028.8,   82.3, -999.0
17-01-2022, 00:24:01,    258,    0.0,    1.2,   0.00,   0.00, 1028.8,   82.3, -999.0
17-01-2022, 00:24:12,    263,    1.5,    1.2,   0.00,   0.00, 1028.9,   82.7, -999.0
17-01-2022, 00:24:21,    262,    0.6,    1.2,   0.00,   0.00, 1028.9,   82.6, -999.0
17-01-2022, 00:24:31,    233,    1.0,    1.2,   0.00,   0.00, 1028.9,   82.5, -999.0
17-01-2022, 00:24:41,    256,    1.8,    1.2,   0.00,   0.00, 1029.0,   82.7, -999.0
17-01-2022, 00:24:51,    270,    1.0,    1.1,   0.00,   0.00, 1028.9,   82.6, -999.0
17-01-2022, 00:25:01,    270,    0.0,    1.1,   0.00,   0.00, 1028.8,   82.1, -999.0
17-01-2022, 00:25:11,    270,    0.0,    1.1,   0.00,   0.00, 1028.8,   82.1, -999.0
17-01-2022, 00:25:21,    270,    0.0,    1.1,   0.00,   0.00, 1028.8,   82.2, -999.0
17-01-2022, 00:25:31,    273,    0.4,    1.2,   0.00,   0.00, 1028.9,   82.3, -999.0
17-01-2022, 00:25:41,    272,    0.0,    1.1,   0.00,   0.00, 1028.9,   82.3, -999.0
17-01-2022, 00:25:51,    272,    0.0,    1.1,   0.00,   0.00, 1028.9,   82.2, -999.0
17-01-2022, 00:26:01,    261,    0.0,    1.1,   0.00,   0.00, 1028.9,   82.2, -999.0
17-01-2022, 00:26:11,    260,    0.0,    1.1,   0.00,   0.00, 1028.8,   82.1, -999.0
17-01-2022, 00:26:21,    260,    0.0,    1.1,   0.00,   0.00, 1028.9,   82.2, -999.0
17-01-2022, 00:26:31,    260,    0.0,    1.0,   0.00,   0.00, 1028.8,   82.1, -999.0
17-01-2022, 00:26:41,    262,    0.0,    1.1,   0.00,   0.00, 1028.8,   82.1, -999.0
17-01-2022, 00:26:51,    257,    0.0,    1.1,   0.00,   0.00, 1028.8,   82.2, -999.0
17-01-2022, 00:27:00,    243,    0.5,    1.1,   0.00,   0.00, 1028.9,   82.4, -999.0
17-01-2022, 00:27:10,    243,    0.2,    1.1,   0.00,   0.00, 1028.9,   82.3, -999.0
17-01-2022, 00:27:21,    243,    0.3,    1.1,   0.00,   0.00, 1028.9,   82.6, -999.0
17-01-2022, 00:27:30,    253,    0.9,    1.1,   0.00,   0.00, 1029.0,   82.6, -999.0
17-01-2022, 00:27:40,    253,    0.3,    1.1,   0.00,   0.00, 1029.0,   82.6, -999.0
17-01-2022, 00:27:51,    255,    0.5,    1.1,   0.00,   0.00, 1028.9,   82.6, -999.0
17-01-2022, 00:28:00,    252,    0.8,    1.1,   0.00,   0.00, 1028.9,   82.6, -999.0
17-01-2022, 00:28:10,    257,    0.2,    1.1,   0.00,   0.00, 1028.9,   82.4, -999.0
17-01-2022, 00:28:20,    256,    0.6,    1.1,   0.00,   0.00, 1028.9,   82.5, -999.0
17-01-2022, 00:28:30,    255,    0.0,    1.0,   0.00,   0.00, 1028.8,   82.2, -999.0
17-01-2022, 00:28:40,    256,    0.0,    1.1,   0.00,   0.00, 1028.8,   82.2, -999.0
17-01-2022, 00:28:50,    256,    0.0,    1.1,   0.00,   0.00, 1028.8,   82.2, -999.0
17-01-2022, 00:29:00,    255,    0.0,    1.0,   0.00,   0.00, 1028.8,   82.3, -999.0
17-01-2022, 00:29:10,    256,    0.0,    1.0,   0.00,   0.00, 1028.8,   82.3, -999.0
17-01-2022, 00:29:20,    256,    0.0,    1.0,   0.00,   0.00, 1028.8,   82.2, -999.0
17-01-2022, 00:29:30,    256,    0.0,    1.0,   0.00,   0.00, 1028.8,   82.2, -999.0
17-01-2022, 00:29:40,    259,    0.0,    1.0,   0.00,   0.00, 1028.8,   82.3, -999.0
17-01-2022, 00:29:50,    253,    0.0,    1.1,   0.00,   0.00, 1028.8,   82.5, -999.0
17-01-2022, 00:30:00,    253,    0.0,    1.0,   0.00,   0.00, 1028.8,   82.4, -999.0
17-01-2022, 00:30:10,    230,    0.0,    1.0,   0.00,   0.00, 1028.8,   82.2, -999.0
17-01-2022, 00:30:20,    230,    0.0,    1.0,   0.00,   0.00, 1028.8,   82.3, -999.0
17-01-2022, 00:30:30,    230,    0.0,    1.0,   0.00,   0.00, 1028.8,   82.3, -999.0
17-01-2022, 00:30:39,    246,    0.0,    1.0,   0.00,   0.00, 1028.8,   82.4, -999.0
17-01-2022, 00:30:49,    249,    0.3,    1.1,   0.00,   0.00, 1029.0,   82.7, -999.0
17-01-2022, 00:31:00,    256,    0.1,    1.1,   0.00,   0.00, 1028.9,   82.6, -999.0
17-01-2022, 00:31:09,    268,    0.0,    1.0,   0.00,   0.00, 1028.8,   82.4, -999.0
17-01-2022, 00:31:19,    268,    0.0,    1.0,   0.00,   0.00, 1028.9,   82.5, -999.0
17-01-2022, 00:31:29,    267,    0.0,    0.9,   0.00,   0.00, 1028.9,   82.4, -999.0
17-01-2022, 00:31:39,    267,    0.0,    1.0,   0.00,   0.00, 1028.8,   82.3, -999.0
17-01-2022, 00:31:49,    251,    0.0,    1.0,   0.00,   0.00, 1028.9,   82.5, -999.0
17-01-2022, 00:31:59,    222,    0.6,    1.0,   0.00,   0.00, 1028.9,   82.5, -999.0
17-01-2022, 00:32:09,    247,    0.2,    0.9,   0.00,   0.00, 1028.9,   82.6, -999.0
17-01-2022, 00:32:19,    247,    0.0,    1.0,   0.00,   0.00, 1028.9,   82.3, -999.0
17-01-2022, 00:32:29,    247,    0.0,    1.0,   0.00,   0.00, 1028.9,   82.5, -999.0
17-01-2022, 00:32:39,    247,    0.0,    1.0,   0.00,   0.00, 1028.9,   82.5, -999.0
17-01-2022, 00:32:49,    247,    0.0,    1.0,   0.00,   0.00, 1028.9,   82.3, -999.0
17-01-2022, 00:32:59,    247,    0.0,    1.1,   0.00,   0.00, 1028.9,   82.5, -999.0
17-01-2022, 00:33:09,    249,    0.0,    1.0,   0.00,   0.00, 1028.9,   82.4, -999.0
17-01-2022, 00:33:19,    265,    0.0,    1.0,   0.00,   0.00, 1028.9,   82.4, -999.0
17-01-2022, 00:33:29,    266,    0.9,    1.0,   0.00,   0.00, 1029.0,   82.7, -999.0
17-01-2022, 00:33:39,    243,    0.7,    1.1,   0.00,   0.00, 1029.0,   82.7, -999.0
17-01-2022, 00:33:49,    245,    0.6,    1.1,   0.00,   0.00, 1029.0,   82.8, -999.0
17-01-2022, 00:33:58,    249,    0.4,    1.0,   0.00,   0.00, 1029.0,   82.8, -999.0
17-01-2022, 00:34:09,    274,    2.1,    1.1,   0.00,   0.00, 1029.0,   82.8, -999.0
17-01-2022, 00:34:18,    272,    0.5,    1.1,   0.00,   0.00, 1029.0,   82.6, -999.0
17-01-2022, 00:34:28,    253,    0.0,    1.0,   0.00,   0.00, 1028.9,   82.5, -999.0
17-01-2022, 00:34:39,    252,    1.2,    1.1,   0.00,   0.00, 1029.0,   82.8, -999.0
17-01-2022, 00:34:48,    252,    0.7,    1.1,   0.00,   0.00, 1029.0,   82.7, -999.0
17-01-2022, 00:34:58,    255,    0.2,    1.1,   0.00,   0.00, 1029.0,   82.7, -999.0
17-01-2022, 00:35:08,    252,    0.1,    1.0,   0.00,   0.00, 1028.9,   82.6, -999.0
17-01-2022, 00:35:18,    252,    0.0,    0.9,   0.00,   0.00, 1028.9,   82.4, -999.0
17-01-2022, 00:35:28,    254,    0.0,    0.9,   0.00,   0.00, 1028.9,   82.4, -999.0
17-01-2022, 00:35:38,    254,    0.0,    1.0,   0.00,   0.00, 1028.8,   82.3, -999.0
17-01-2022, 00:35:48,    254,    0.0,    0.9,   0.00,   0.00, 1028.9,   82.3, -999.0
17-01-2022, 00:35:58,    254,    0.0,    0.9,   0.00,   0.00, 1028.8,   82.3, -999.0
17-01-2022, 00:36:08,    255,    0.0,    0.9,   0.00,   0.00, 1028.9,   82.4, -999.0
17-01-2022, 00:36:18,    261,    0.0,    0.9,   0.00,   0.00, 1028.9,   82.3, -999.0
17-01-2022, 00:36:28,    261,    0.9,    1.0,   0.00,   0.00, 1029.0,   82.7, -999.0
17-01-2022, 00:36:38,    262,    0.2,    1.0,   0.00,   0.00, 1028.9,   82.6, -999.0
17-01-2022, 00:36:48,    268,    0.0,    0.9,   0.00,   0.00, 1028.9,   82.4, -999.0
17-01-2022, 00:36:58,    272,    0.0,    0.9,   0.00,   0.00, 1028.9,   82.4, -999.0
17-01-2022, 00:37:08,    277,    0.0,    0.9,   0.00,   0.00, 1028.9,   82.4, -999.0
17-01-2022, 00:37:18,    276,    0.0,    1.0,   0.00,   0.00, 1028.9,   82.3, -999.0
17-01-2022, 00:37:28,    229,    0.0,    0.9,   0.00,   0.00, 1028.9,   82.4, -999.0
17-01-2022, 00:37:37,    229,    0.0,    0.9,   0.00,   0.00, 1028.9,   82.5, -999.0
17-01-2022, 00:37:48,    229,    0.0,    0.9,   0.00,   0.00, 1028.9,   82.5, -999.0
17-01-2022, 00:37:58,    230,    0.0,    0.9,   0.00,   0.00, 1028.9,   82.4, -999.0
17-01-2022, 00:38:07,    230,    0.0,    1.0,   0.00,   0.00, 1028.9,   82.5, -999.0
17-01-2022, 00:38:17,    233,    0.0,    0.9,   0.00,   0.00, 1028.9,   82.7, -999.0
17-01-2022, 00:38:27,    232,    0.0,    0.9,   0.00,   0.00, 1028.9,   82.8, -999.0
17-01-2022, 00:38:37,    234,    0.0,    1.0,   0.00,   0.00, 1028.9,   82.6, -999.0
17-01-2022, 00:38:47,    234,    0.0,    1.0,   0.00,   0.00, 1028.9,   82.7, -999.0
17-01-2022, 00:38:57,    234,    0.0,    0.9,   0.00,   0.00, 1028.9,   82.6, -999.0
17-01-2022, 00:39:07,    240,    0.0,    1.0,   0.00,   0.00, 1028.9,   82.7, -999.0
17-01-2022, 00:39:17,    240,    0.0,    1.0,   0.00,   0.00, 1028.9,   82.7, -999.0
17-01-2022, 00:39:27,    240,    0.0,    1.0,   0.00,   0.00, 1028.9,   82.4, -999.0
17-01-2022, 00:39:37,    243,    0.9,    0.9,   0.00,   0.00, 1029.1,   82.9, -999.0
17-01-2022, 00:39:47,    250,    1.0,    1.1,   0.00,   0.00, 1029.1,   83.0, -999.0
17-01-2022, 00:39:57,    256,    1.0,    1.1,   0.00,   0.00, 1029.0,   82.9, -999.0
17-01-2022, 00:40:07,    269,    0.7,    1.0,   0.00,   0.00, 1029.0,   82.8, -999.0
17-01-2022, 00:40:17,    272,    0.3,    1.0,   0.00,   0.00, 1029.0,   82.9, -999.0
17-01-2022, 00:40:27,    280,    0.3,    0.9,   0.00,   0.00, 1029.0,   82.8, -999.0
17-01-2022, 00:40:37,    280,    0.0,    1.0,   0.00,   0.00, 1028.9,   82.6, -999.0
17-01-2022, 00:40:46,    280,    0.0,    0.9,   0.00,   0.00, 1028.9,   82.6, -999.0
17-01-2022, 00:40:57,    280,    0.0,    1.0,   0.00,   0.00, 1028.9,   82.6, -999.0
17-01-2022, 00:41:07,    281,    0.0,    0.9,   0.00,   0.00, 1028.9,   82.5, -999.0
17-01-2022, 00:41:16,    280,    0.0,    0.8,   0.00,   0.00, 1028.9,   82.6, -999.0
17-01-2022, 00:41:26,    280,    0.0,    0.9,   0.00,   0.00, 1028.9,   82.6, -999.0
17-01-2022, 00:41:37,    280,    0.0,    0.9,   0.00,   0.00, 1028.9,   82.5, -999.0
17-01-2022, 00:41:46,    281,    0.0,    0.7,   0.00,   0.00, 1029.0,   82.7, -999.0
17-01-2022, 00:41:56,    282,    0.0,    1.0,   0.00,   0.00, 1029.0,   82.6, -999.0
17-01-2022, 00:42:06,    282,    0.0,    0.9,   0.00,   0.00, 1028.9,   82.6, -999.0
17-01-2022, 00:42:16,    282,    0.0,    1.0,   0.00,   0.00, 1029.0,   82.7, -999.0
17-01-2022, 00:42:26,    282,    0.0,    0.9,   0.00,   0.00, 1028.9,   82.6, -999.0
17-01-2022, 00:42:36,    282,    0.0,    0.9,   0.00,   0.00, 1029.0,   82.7, -999.0
17-01-2022, 00:42:46,    281,    0.1,    1.0,   0.00,   0.00, 1029.0,   82.8, -999.0
17-01-2022, 00:42:56,    282,    0.0,    0.9,   0.00,   0.00, 1029.0,   82.6, -999.0
17-01-2022, 00:43:06,    282,    0.0,    0.9,   0.00,   0.00, 1028.9,   82.7, -999.0
17-01-2022, 00:43:16,    281,    0.0,    0.9,   0.00,   0.00, 1028.9,   82.7, -999.0
17-01-2022, 00:43:26,    277,    0.0,    0.8,   0.00,   0.00, 1028.9,   82.8, -999.0
17-01-2022, 00:43:36,    257,    0.5,    1.0,   0.00,   0.00, 1029.1,   83.0, -999.0
17-01-2022, 00:43:46,    264,    0.1,    1.0,   0.00,   0.00, 1029.0,   82.9, -999.0
17-01-2022, 00:43:55,    267,    0.3,    0.9,   0.00,   0.00, 1029.0,   82.8, -999.0
17-01-2022, 00:44:06,    228,    0.1,    1.0,   0.00,   0.00, 1029.0,   83.0, -999.0
17-01-2022, 00:44:16,    242,    0.8,    1.0,   0.00,   0.00, 1029.1,   83.1, -999.0
17-01-2022, 00:44:25,    243,    0.4,    1.1,   0.00,   0.00, 1029.1,   83.1, -999.0
17-01-2022, 00:44:36,    245,    0.1,    1.0,   0.00,   0.00, 1029.0,   82.8, -999.0
17-01-2022, 00:44:46,    244,    0.0,    0.9,   0.00,   0.00, 1028.9,   82.6, -999.0
17-01-2022, 00:44:55,    245,    0.0,    0.9,   0.00,   0.00, 1029.0,   82.7, -999.0
17-01-2022, 00:45:05,    281,    0.3,    0.9,   0.00,   0.00, 1029.0,   83.0, -999.0
17-01-2022, 00:45:15,    281,    0.7,    1.0,   0.00,   0.00, 1029.1,   83.1, -999.0
17-01-2022, 00:45:25,    281,    0.1,    1.0,   0.00,   0.00, 1029.1,   83.0, -999.0
17-01-2022, 00:45:35,    280,    0.2,    1.0,   0.00,   0.00, 1029.1,   83.0, -999.0
17-01-2022, 00:45:45,    271,    0.5,    1.0,   0.00,   0.00, 1029.1,   83.1, -999.0
17-01-2022, 00:45:55,    270,    0.2,    1.0,   0.00,   0.00, 1029.1,   83.0, -999.0
17-01-2022, 00:46:05,    271,    0.0,    0.9,   0.00,   0.00, 1029.0,   82.6, -999.0
17-01-2022, 00:46:15,    270,    0.0,    0.8,   0.00,   0.00, 1029.0,   82.5, -999.0
17-01-2022, 00:46:25,    276,    0.0,    0.8,   0.00,   0.00, 1029.0,   82.7, -999.0
17-01-2022, 00:46:35,    277,    0.0,    0.8,   0.00,   0.00, 1029.0,   82.6, -999.0
17-01-2022, 00:46:45,    276,    0.0,    0.9,   0.00,   0.00, 1029.0,   82.6, -999.0